ONEWEB-0136

Last updated on Mon Jan 18 2021 00:02:03 GMT+0000 (Coordinated Universal Time)

1 47282U 20100AA 21017.58334491 -.01470661 00000-0 -92398-1 0 9993 2 47282 87.4316 29.0632 0009237 143.5531 66.8868 15.12502343 1839

Satellite not in orbit